Location: Ecklingerode
(51.5036°N, 10.3122°E)
Time: 07:27:33
(UTC+00:00)

NOSS 3-3 (A) - Pass Details

Date: 29 October 2020
Orbit: 819 x 1393 km, 63.4° (Epoch: 29 November)

Event Time Altitude Azimuth Distance (km) Brightness Sun altitude
Rises 18:04:50 0° 213° (SSW) 3,417 7.3 -20.4°
Reaches altitude 10° 18:07:11 10° 211° (SSW) 2,529 6.5 -20.8°
Maximum altitude 18:13:00 70° 129° (SE) 1,011 3.8 -21.7°
Enters shadow 18:16:07 32° 54° (NE) 1,643 4.8 -22.2°
